When you browse on this site, cookies collect data to enhance your experience and personalize the content and advertising you see.
Visit our Privacy Policy to learn more. By continuing to use the site, you agree to this use of cookies and data.

Stündliche Wetter Pachuca de Soto

Heute, 12 August, Mittwoch

Zeit Temperatur Niederschläge Wind Luftdruck Luftfeuchtigkeit
00:00 +13°C° 0 mm 1 m/S 572 mmHg 93%
01:00 +13°C° 0 mm 1 m/S 572 mmHg 93%
02:00 +13°C° 0 mm 1 m/S 572 mmHg 93%
03:00 +12°C° 0 mm 1 m/S 572 mmHg 93%
04:00 +12°C° 0 mm 1 m/S 572 mmHg 93%
05:00 +12°C° 0 mm 1 m/S 572 mmHg 94%
06:00 +13°C° 0 mm 1 m/S 572 mmHg 87%
07:00 +15°C° 0 mm 1 m/S 573 mmHg 80%
08:00 +16°C° 0 mm 1 m/S 574 mmHg 73%
09:00 +18°C° 0.1 mm 2 m/S 575 mmHg 67%
10:00 +20°C° 0.1 mm 3 m/S 575 mmHg 60%
11:00 +22°C° 0.1 mm 3 m/S 576 mmHg 54%
12:00 +21°C° 1.4 mm 3 m/S 575 mmHg 60%
13:00 +20°C° 1.4 mm 4 m/S 574 mmHg 65%
14:00 +20°C° 1.4 mm 4 m/S 573 mmHg 71%
15:00 +19°C° 1.4 mm 4 m/S 573 mmHg 75%
16:00 +18°C° 1.4 mm 3 m/S 573 mmHg 79%
17:00 +16°C° 1.4 mm 3 m/S 572 mmHg 84%
18:00 +16°C° 0.4 mm 3 m/S 573 mmHg 86%
19:00 +14°C° 0.4 mm 3 m/S 573 mmHg 88%
20:00 +14°C° 0.4 mm 2 m/S 573 mmHg 91%
21:00 +14°C° 0 mm 2 m/S 573 mmHg 92%
22:00 +13°C° 0 mm 2 m/S 573 mmHg 92%
23:00 +13°C° 0 mm 1 m/S 573 mmHg 93%

Morgen, 13 August, Donnerstag

Zeit Temperatur Niederschläge Wind Luftdruck Luftfeuchtigkeit
00:00 +13°C° 0 mm 1 m/S 573 mmHg 93%
01:00 +12°C° 0 mm 1 m/S 572 mmHg 93%
02:00 +11°C° 0 mm 0 m/S 572 mmHg 93%
03:00 +11°C° 0 mm 0 m/S 572 mmHg 92%
04:00 +10°C° 0 mm 0 m/S 571 mmHg 91%
05:00 +10°C° 0 mm 0 m/S 571 mmHg 90%
06:00 +12°C° 0 mm 0 m/S 572 mmHg 83%
07:00 +15°C° 0 mm 1 m/S 573 mmHg 75%
08:00 +16°C° 0 mm 1 m/S 574 mmHg 68%
09:00 +18°C° 0 mm 2 m/S 575 mmHg 61%
10:00 +20°C° 0 mm 2 m/S 575 mmHg 54%
11:00 +21°C° 0 mm 3 m/S 576 mmHg 47%
12:00 +21°C° 0.5 mm 3 m/S 575 mmHg 53%
13:00 +20°C° 0.5 mm 4 m/S 574 mmHg 60%
14:00 +20°C° 0.5 mm 5 m/S 573 mmHg 66%
15:00 +19°C° 0.5 mm 5 m/S 573 mmHg 69%
16:00 +18°C° 0.5 mm 4 m/S 573 mmHg 73%
17:00 +17°C° 0.5 mm 4 m/S 573 mmHg 76%
18:00 +16°C° 0.1 mm 3 m/S 573 mmHg 81%
19:00 +14°C° 0.1 mm 3 m/S 572 mmHg 85%
20:00 +14°C° 0.1 mm 2 m/S 572 mmHg 90%
21:00 +13°C° 0 mm 2 m/S 572 mmHg 91%
22:00 +12°C° 0 mm 1 m/S 572 mmHg 91%
23:00 +12°C° 0 mm 1 m/S 572 mmHg 92%

übermorgen, 14 August, Freitag

Zeit Temperatur Niederschläge Wind Luftdruck Luftfeuchtigkeit
00:00 +11°C° 0 mm 1 m/S 571 mmHg 91%
01:00 +11°C° 0 mm 1 m/S 571 mmHg 91%
02:00 +9°C° 0 mm 0 m/S 570 mmHg 90%
03:00 +9°C° 0 mm 0 m/S 570 mmHg 89%
04:00 +9°C° 0 mm 0 m/S 570 mmHg 87%
05:00 +8°C° 0 mm 0 m/S 570 mmHg 86%
06:00 +12°C° 0 mm 1 m/S 571 mmHg 75%
07:00 +14°C° 0 mm 1 m/S 573 mmHg 64%
08:00 +16°C° 0 mm 1 m/S 574 mmHg 54%
09:00 +18°C° 0 mm 2 m/S 574 mmHg 51%
10:00 +19°C° 0 mm 2 m/S 575 mmHg 48%
11:00 +21°C° 0 mm 3 m/S 575 mmHg 45%
12:00 +21°C° 0.2 mm 4 m/S 575 mmHg 48%
13:00 +21°C° 0.2 mm 5 m/S 574 mmHg 52%
14:00 +21°C° 0.2 mm 5 m/S 574 mmHg 55%
15:00 +20°C° 0.5 mm 5 m/S 573 mmHg 61%
16:00 +17°C° 0.5 mm 5 m/S 573 mmHg 67%
17:00 +17°C° 0.5 mm 4 m/S 572 mmHg 72%
18:00 +16°C° 0.1 mm 3 m/S 572 mmHg 79%
19:00 +13°C° 0.1 mm 3 m/S 572 mmHg 85%
20:00 +12°C° 0.1 mm 2 m/S 572 mmHg 92%
21:00 +12°C° 0 mm 2 m/S 572 mmHg 92%
22:00 +12°C° 0 mm 1 m/S 572 mmHg 93%
23:00 +11°C° 0 mm 1 m/S 571 mmHg 93%

15 August, Samstag

Zeit Temperatur Niederschläge Wind Luftdruck Luftfeuchtigkeit
00:00 +11°C° 0 mm 1 m/S 571 mmHg 93%
01:00 +11°C° 0 mm 1 m/S 571 mmHg 92%
02:00 +10°C° 0 mm 0 m/S 570 mmHg 92%
03:00 +10°C° 0 mm 0 m/S 570 mmHg 91%
04:00 +10°C° 0 mm 0 m/S 570 mmHg 91%
05:00 +10°C° 0 mm 0 m/S 570 mmHg 90%
06:00 +12°C° 0 mm 0 m/S 572 mmHg 82%
07:00 +15°C° 0 mm 1 m/S 573 mmHg 74%
08:00 +18°C° 0 mm 1 m/S 574 mmHg 67%
09:00 +18°C° 0.4 mm 2 m/S 574 mmHg 64%
10:00 +19°C° 0.4 mm 2 m/S 574 mmHg 61%
11:00 +20°C° 0.4 mm 3 m/S 575 mmHg 59%
12:00 +20°C° 1.8 mm 3 m/S 574 mmHg 62%
13:00 +19°C° 1.8 mm 3 m/S 574 mmHg 66%
14:00 +19°C° 1.8 mm 3 m/S 573 mmHg 70%
15:00 +18°C° 1.5 mm 3 m/S 572 mmHg 75%
16:00 +17°C° 1.5 mm 3 m/S 572 mmHg 80%
17:00 +16°C° 1.5 mm 3 m/S 571 mmHg 85%
18:00 +14°C° 0.5 mm 3 m/S 572 mmHg 88%
19:00 +13°C° 0.5 mm 3 m/S 572 mmHg 90%
20:00 +14°C° 0.5 mm 2 m/S 572 mmHg 93%
21:00 +13°C° 0 mm 2 m/S 572 mmHg 94%
22:00 +13°C° 0 mm 2 m/S 572 mmHg 94%
23:00 +13°C° 0 mm 2 m/S 572 mmHg 95%

16 August, Sonntag

Zeit Temperatur Niederschläge Wind Luftdruck Luftfeuchtigkeit
00:00 +13°C° 0 mm 1 m/S 572 mmHg 94%
01:00 +13°C° 0 mm 1 m/S 571 mmHg 93%
02:00 +13°C° 0 mm 1 m/S 571 mmHg 92%
03:00 +12°C° 0 mm 1 m/S 571 mmHg 92%
04:00 +12°C° 0 mm 1 m/S 571 mmHg 91%
05:00 +11°C° 0 mm 0 m/S 571 mmHg 91%
06:00 +13°C° 0 mm 1 m/S 572 mmHg 85%
07:00 +15°C° 0 mm 1 m/S 573 mmHg 79%
08:00 +16°C° 0 mm 1 m/S 574 mmHg 73%
09:00 +18°C° 0 mm 2 m/S 574 mmHg 67%
10:00 +19°C° 0 mm 2 m/S 575 mmHg 61%
11:00 +21°C° 0 mm 3 m/S 575 mmHg 56%
12:00 +21°C° 1 mm 3 m/S 575 mmHg 60%
13:00 +20°C° 1 mm 4 m/S 574 mmHg 65%
14:00 +20°C° 1 mm 4 m/S 573 mmHg 69%
15:00 +19°C° 0.7 mm 4 m/S 573 mmHg 74%
16:00 +18°C° 0.7 mm 4 m/S 572 mmHg 78%
17:00 +17°C° 0.7 mm 4 m/S 572 mmHg 83%
18:00 +15°C° 0.2 mm 4 m/S 572 mmHg 86%
19:00 +14°C° 0.2 mm 3 m/S 572 mmHg 90%
20:00 +13°C° 0.2 mm 3 m/S 572 mmHg 93%
21:00 +14°C° 0 mm 2 m/S 572 mmHg 92%
22:00 +13°C° 0 mm 2 m/S 573 mmHg 92%
23:00 +13°C° 0 mm 2 m/S 573 mmHg 91%

17 August, Montag

Zeit Temperatur Niederschläge Wind Luftdruck Luftfeuchtigkeit
00:00 +13°C° 0 mm 1 m/S 572 mmHg 92%
01:00 +12°C° 0 mm 1 m/S 572 mmHg 92%
02:00 +12°C° 0 mm 1 m/S 571 mmHg 93%
03:00 +12°C° 0 mm 1 m/S 571 mmHg 93%
04:00 +11°C° 0 mm 1 m/S 571 mmHg 94%
05:00 +10°C° 0 mm 1 m/S 571 mmHg 94%
06:00 +12°C° 0 mm 1 m/S 572 mmHg 86%
07:00 +14°C° 0 mm 1 m/S 573 mmHg 78%
08:00 +16°C° 0 mm 1 m/S 574 mmHg 70%
09:00 +18°C° 0 mm 2 m/S 574 mmHg 62%
10:00 +19°C° 0 mm 3 m/S 575 mmHg 55%
11:00 +21°C° 0 mm 3 m/S 576 mmHg 47%
12:00 +21°C° 0.1 mm 4 m/S 575 mmHg 50%
13:00 +21°C° 0.1 mm 5 m/S 575 mmHg 53%
14:00 +21°C° 0.1 mm 6 m/S 574 mmHg 57%
15:00 +20°C° 0.5 mm 5 m/S 574 mmHg 63%
16:00 +19°C° 0.5 mm 5 m/S 573 mmHg 69%
17:00 +17°C° 0.5 mm 4 m/S 573 mmHg 76%
18:00 +15°C° 0.1 mm 4 m/S 572 mmHg 81%
19:00 +13°C° 0.1 mm 3 m/S 572 mmHg 86%
20:00 +13°C° 0.1 mm 2 m/S 572 mmHg 92%
21:00 +13°C° 0 mm 2 m/S 572 mmHg 92%
22:00 +12°C° 0 mm 2 m/S 572 mmHg 92%
23:00 +12°C° 0 mm 2 m/S 572 mmHg 92%
Mehr zeigen